[[{"header":{"parameterUnit":"m.s-1","parameterCategory":1,"la1":30.2991,"la2":30.254,"lo1":-89.0895,"lo2":-89.0444,"dy":0.0017,"dx":0.0017,"nx":28,"ny":28,"refTime":"2024-05-14T21:00:00:Z","depth":0,"parameterNumber":2,"parameterNumberName":"U-component_of_WINDS"},"data":[0,0,0,0,0,0,0,0,0,0,0,0,0,0,0,0,0,0,0,0,0,0,0,0,0,0,0,0,0,0,0,0,0,0,0,0,0,0,0,0,0,0,0,0,0,0,0,0,0,0,0,0,0,0,0,0,0,0,-1.1763,-1.1762,0,-1.1735,-1.1734,-1.1734,-1.167,-1.1669,-1.1667,-1.1666,-1.1637,-1.1638,-1.1638,0,0,0,0,0,0,0,0,0,0,0,0,0,-1.176,-1.176,-1.1763,-1.1762,-1.1762,-1.1735,-1.1734,-1.1734,-1.167,-1.1669,-1.1667,-1.1666,-1.1637,-1.1638,-1.1638,0,0,0,0,0,0,0,0,0,0,0,0,0,-1.1749,-1.176,-1.1763,-1.1727,-1.1723,-1.1735,-1.1734,-1.1734,-1.1671,-1.1669,-1.1667,-1.1665,-1.1637,-1.1638,-1.1639,-1.1682,0,0,-1.1641,-1.1641,0,0,0,0,0,0,0,0,-1.175,-1.175,-1.1732,-1.1729,-1.1725,-1.1704,-1.1723,-1.1717,-1.1671,-1.1691,-1.1666,-1.1664,-1.1661,-1.166,-1.1659,-1.1681,-1.168,-1.1641,-1.1641,-1.1641,-1.1642,0,0,0,0,0,0,0,-1.1751,-1.175,-1.1751,-1.1732,-1.1728,-1.1712,-1.1708,-1.1721,-1.1687,-1.1689,-1.1684,-1.1682,-1.1659,-1.1658,-1.1658,-1.1679,-1.1641,-1.1641,-1.1642,-1.1642,-1.1733,-1.1735,0,0,0,0,0,0,-1.1757,-1.1752,-1.1752,-1.1751,-1.1733,-1.1713,-1.1709,-1.1713,-1.1687,-1.1681,-1.1683,-1.1679,-1.1658,-1.1657,-1.1656,-1.1704,-1.1641,-1.1642,-1.1642,-1.1731,-1.1734,-1.1736,0,0,0,0,0,0,-1.1757,-1.1758,-1.1753,-1.175,-1.1748,-1.1716,-1.172,-1.1713,-1.1713,-1.1683,-1.1676,-1.1689,-1.1656,-1.1655,-1.1676,-1.1702,-1.1642,-1.1643,-1.1729,-1.1732,-1.1735,-1.1802,0,0,0,0,0,0,-1.1757,-1.1758,-1.1775,-1.1751,-1.1748,-1.1774,-1.1722,-1.1714,-1.1714,-1.1708,-1.1687,-1.1681,-1.1655,-1.1675,-1.1677,-1.1702,-1.1644,-1.1726,-1.173,-1.1734,-1.1797,-1.1807,-1.1815,0,0,0,0,0,-1.1757,-1.1795,-1.1776,-1.1777,-1.1769,-1.1776,-1.1774,-1.1743,-1.1716,-1.1733,-1.1713,-1.1682,-1.1699,-1.1678,-1.1679,-1.1705,-1.1725,-1.1729,-1.1734,-1.1793,-1.1805,-1.1815,0,0,0,0,0,0,-1.1824,-1.1792,-1.177,-1.1801,-1.1792,-1.1765,-1.1785,-1.1757,-1.1755,-1.175,-1.1711,-1.1707,-1.1732,-1.1721,-1.1697,-1.1745,-1.1707,-1.1712,-1.1751,-1.1762,-1.1771,-1.1773,-1.1644,0,0,0,0,0,-1.1842,-1.1851,-1.1822,-1.1852,-1.1849,-1.1818,-1.182,-1.1796,-1.1785,-1.1781,-1.1763,-1.1753,-1.1755,-1.1758,-1.176,-1.1795,-1.1788,-1.1813,-1.1822,-1.183,-1.1834,-1.185,-1.186,-1.1751,-1.1751,-1.1751,0,0,-1.1881,-1.1864,-1.1872,-1.1865,-1.1855,-1.1864,-1.1815,-1.1827,-1.1833,-1.1782,-1.18,-1.1787,-1.1773,-1.18,-1.1811,-1.1791,-1.1863,-1.1836,-1.1842,-1.1842,-1.1856,-1.1866,-1.1875,-1.1754,-1.1753,-1.1753,0,0,-1.1954,-1.1943,-1.1966,-1.1956,-1.1941,-1.192,-1.1926,-1.1903,-1.1892,-1.1909,-1.187,-1.1877,-1.1883,-1.1874,-1.1871,-1.1939,-1.1909,-1.194,-1.1987,-1.2003,-1.2011,-1.2019,-1.2041,-1.205,-1.1945,-1.1945,-1.1945,0,-1.2003,-1.2015,-1.1981,-1.1995,-1.1993,-1.1947,-1.1969,-1.1962,-1.1948,-1.1947,-1.1925,-1.1931,-1.1919,-1.1942,-1.1959,-1.1958,-1.1962,-1.1942,-1.2013,-1.202,-1.2026,-1.2047,-1.2056,-1.1949,-1.1949,-1.1948,-1.1948,0,-1.2076,-1.2085,-1.2105,-1.2092,-1.2092,-1.2111,-1.2078,-1.2082,-1.2059,-1.2039,-1.2056,-1.204,-1.2036,-1.204,-1.2017,-1.206,-1.2047,-1.202,-1.198,-1.2041,-1.206,-1.2068,-1.1954,-1.1953,-1.1952,-1.1951,0,0,-1.2191,-1.2158,-1.2166,-1.2158,-1.2138,-1.2144,-1.2159,-1.2155,-1.2158,-1.215,-1.2161,-1.2167,-1.214,-1.2136,-1.2112,-1.2126,-1.2179,-1.2096,-1.2095,-1.2111,-1.2222,-1.2242,-1.2252,-1.2159,-1.2161,-1.2162,-1.2223,0,-1.2259,-1.2283,-1.2252,-1.2283,-1.229,-1.2246,-1.2259,-1.2247,-1.223,-1.2232,-1.2212,-1.2216,-1.2182,-1.2179,-1.2191,-1.217,-1.22,-1.2165,-1.2168,-1.2168,-1.2172,-1.2262,-1.2284,-1.2343,-1.223,-1.2231,-1.2232,0,-1.2341,-1.2336,-1.2368,-1.2343,-1.2345,-1.2357,-1.235,-1.2353,-1.2339,-1.2324,-1.2319,-1.229,-1.2302,-1.2264,-1.2279,-1.2256,-1.2255,-1.2245,-1.2247,-1.2245,-1.2203,-1.2262,-1.2361,-1.2369,-1.2244,-1.2243,-1.2242,0,-1.242,-1.2421,-1.244,-1.2435,-1.2407,-1.2417,-1.2406,-1.2389,-1.2388,-1.2381,-1.2379,-1.2375,-1.2372,-1.2368,-1.2338,-1.2313,-1.2356,-1.2316,-1.2343,-1.2344,-1.2354,-1.2353,-1.2453,-1.2356,-1.2356,-1.2355,-1.2355,0,-1.2499,-1.2519,-1.2475,-1.2486,-1.2507,-1.2471,-1.2493,-1.2477,-1.2462,-1.2469,-1.243,-1.2437,-1.2397,-1.2399,-1.2376,-1.2391,-1.239,-1.2378,-1.2371,-1.2381,-1.2382,-1.2379,-1.2374,-1.2358,-1.2357,-1.2357,-1.2356,0,-1.259,-1.2562,-1.2578,-1.255,-1.2543,-1.256,-1.2536,-1.2544,-1.2524,-1.2532,-1.2532,-1.25,-1.25,-1.2469,-1.2464,-1.2447,-1.2472,-1.2459,-1.2477,-1.2472,-1.2501,-1.2498,-1.26,-1.2611,-1.2509,-1.251,-1.2511,0,-1.2642,-1.2656,-1.2629,-1.2631,-1.2621,-1.2625,-1.2623,-1.2587,-1.2587,-1.257,-1.258,-1.2577,-1.2573,-1.2576,-1.2551,-1.2546,-1.2531,-1.2567,-1.253,-1.2538,-1.2529,-1.2528,-1.2528,-1.2575,-1.2576,-1.2577,-1.2578,0,-1.2735,-1.272,-1.2719,-1.2712,-1.2711,-1.2704,-1.2695,-1.2698,-1.2659,-1.266,-1.2659,-1.2656,-1.265,-1.2647,-1.2637,-1.2624,-1.2594,-1.259,-1.2595,-1.2605,-1.2614,-1.2607,-1.2497,-1.2587,-1.2587,-1.2586,-1.2585,-1.2585,-1.2807,-1.2817,-1.2799,-1.2799,-1.2788,-1.2779,-1.2785,-1.2765,-1.2764,-1.2756,-1.2735,-1.2737,-1.272,-1.2703,-1.2693,-1.2694,-1.2676,-1.2685,-1.2687,-1.2689,-1.2693,-1.2615,-1.2692,-1.2692,-1.2692,-1.2692,-1.2691,0,-1.2897,-1.2883,-1.2883,-1.287,-1.2869,-1.2841,-1.2829,-1.283,-1.2833,-1.2819,-1.2815,-1.2814,-1.281,-1.2785,-1.2778,-1.2783,-1.2769,-1.2783,-1.2781,-1.2778,-1.2711,-1.2706,-1.2794,-1.2794,-1.2794,-1.2794,-1.2794,-1.2794,-1.2944,-1.2958,-1.2941,-1.2949,-1.2935,-1.2937,-1.2932,-1.2924,-1.2912,-1.2912,-1.2909,-1.2892,-1.2873,-1.2865,-1.286,-1.2852,-1.285,-1.2868,-1.2856,-1.2793,-1.2783,-1.2774,-1.2769,-1.2869,-1.2869,-1.2923,-1.2923,-1.2924]},{"header":{"parameterUnit":"m.s-1","parameterCategory":1,"la1":30.2991,"la2":30.254,"lo1":-89.0895,"lo2":-89.0444,"dy":0.0017,"dx":0.0017,"nx":28,"ny":28,"refTime":"2024-05-14T21:00:00:Z","depth":0,"parameterNumber":3,"parameterNumberName":"V-component_of_WINDS"},"data":[0,0,0,0,0,0,0,0,0,0,0,0,0,0,0,0,0,0,0,0,0,0,0,0,0,0,0,0,0,0,0,0,0,0,0,0,0,0,0,0,0,0,0,0,0,0,0,0,0,0,0,0,0,0,0,0,0,0,-1.5259,-1.5259,0,-1.5237,-1.5237,-1.5236,-1.5218,-1.5218,-1.5218,-1.5218,-1.5194,-1.5193,-1.5193,0,0,0,0,0,0,0,0,0,0,0,0,0,-1.5282,-1.5282,-1.5259,-1.5258,-1.5258,-1.5237,-1.5237,-1.5236,-1.5218,-1.5218,-1.5218,-1.5217,-1.5194,-1.5193,-1.5193,0,0,0,0,0,0,0,0,0,0,0,0,0,-1.5267,-1.5281,-1.5259,-1.5247,-1.5245,-1.5237,-1.5237,-1.5236,-1.5218,-1.5218,-1.5218,-1.5217,-1.5194,-1.5193,-1.5193,-1.5194,0,0,-1.5191,-1.519,0,0,0,0,0,0,0,0,-1.5268,-1.5266,-1.5249,-1.5247,-1.5246,-1.523,-1.5236,-1.5222,-1.5218,-1.5228,-1.5218,-1.5217,-1.5206,-1.5204,-1.5201,-1.5193,-1.5192,-1.5191,-1.519,-1.519,-1.519,0,0,0,0,0,0,0,-1.5269,-1.5267,-1.525,-1.5248,-1.5247,-1.5241,-1.5239,-1.5233,-1.5219,-1.5228,-1.5226,-1.5224,-1.5205,-1.5201,-1.52,-1.5192,-1.5191,-1.519,-1.519,-1.5189,-1.5182,-1.5182,0,0,0,0,0,0,-1.5272,-1.5268,-1.5251,-1.5249,-1.5257,-1.5241,-1.5238,-1.5235,-1.5219,-1.5216,-1.5224,-1.5223,-1.5203,-1.5201,-1.5199,-1.5198,-1.519,-1.5189,-1.5189,-1.5182,-1.5182,-1.5182,0,0,0,0,0,0,-1.5273,-1.5271,-1.5252,-1.5258,-1.5255,-1.5241,-1.5238,-1.5235,-1.5231,-1.5217,-1.5214,-1.5223,-1.5202,-1.52,-1.5195,-1.5197,-1.5189,-1.5188,-1.5181,-1.5182,-1.5182,-1.5198,0,0,0,0,0,0,-1.5274,-1.5271,-1.5273,-1.5259,-1.5255,-1.5249,-1.5238,-1.5235,-1.523,-1.5229,-1.5215,-1.5212,-1.5202,-1.5196,-1.5194,-1.5196,-1.5188,-1.5181,-1.5181,-1.5182,-1.5197,-1.5199,-1.52,0,0,0,0,0,-1.5274,-1.5278,-1.5273,-1.5271,-1.5257,-1.5249,-1.5247,-1.5236,-1.5231,-1.5231,-1.5221,-1.5213,-1.5197,-1.5196,-1.5194,-1.5195,-1.5181,-1.5181,-1.5182,-1.5197,-1.5199,-1.52,0,0,0,0,0,0,-1.5293,-1.5276,-1.527,-1.5269,-1.5261,-1.5246,-1.5247,-1.5239,-1.5231,-1.523,-1.5215,-1.5212,-1.5209,-1.5202,-1.52,-1.5195,-1.5188,-1.5188,-1.52,-1.5202,-1.5203,-1.5205,-1.5187,0,0,0,0,0,-1.5297,-1.5293,-1.5278,-1.5279,-1.5275,-1.5262,-1.5258,-1.525,-1.524,-1.5236,-1.5226,-1.5217,-1.5209,-1.5205,-1.5198,-1.5196,-1.5192,-1.5196,-1.5197,-1.5199,-1.5199,-1.5196,-1.5197,-1.5184,-1.5184,-1.5184,0,0,-1.5305,-1.5295,-1.5294,-1.5282,-1.5275,-1.527,-1.5259,-1.5255,-1.5251,-1.5236,-1.523,-1.5222,-1.521,-1.5207,-1.5204,-1.52,-1.5201,-1.5199,-1.5201,-1.52,-1.5196,-1.5197,-1.5199,-1.5184,-1.5184,-1.5184,0,0,-1.5317,-1.531,-1.5309,-1.5302,-1.529,-1.5281,-1.5281,-1.5267,-1.5261,-1.5255,-1.5243,-1.5238,-1.5226,-1.5218,-1.5212,-1.5219,-1.521,-1.5217,-1.5225,-1.5222,-1.5223,-1.5223,-1.5225,-1.5226,-1.5217,-1.5217,-1.5217,0,-1.5329,-1.5322,-1.531,-1.5306,-1.5301,-1.5287,-1.5285,-1.5278,-1.5264,-1.526,-1.5256,-1.524,-1.5231,-1.5224,-1.5226,-1.5222,-1.522,-1.5219,-1.5224,-1.5224,-1.5225,-1.5226,-1.5227,-1.5218,-1.5218,-1.5218,-1.5218,0,-1.5336,-1.5331,-1.5332,-1.5319,-1.5314,-1.5311,-1.5297,-1.5293,-1.5285,-1.5275,-1.5268,-1.5257,-1.5246,-1.5244,-1.5236,-1.5235,-1.5233,-1.5227,-1.5219,-1.5227,-1.5228,-1.5228,-1.5219,-1.5219,-1.5218,-1.5218,0,0,-1.5361,-1.534,-1.534,-1.5334,-1.5319,-1.5315,-1.531,-1.53,-1.5296,-1.5287,-1.5282,-1.5271,-1.5264,-1.5258,-1.5248,-1.5246,-1.525,-1.5239,-1.5238,-1.5241,-1.5247,-1.5252,-1.5253,-1.5244,-1.5244,-1.5244,-1.5248,0,-1.537,-1.5363,-1.535,-1.5346,-1.5341,-1.5326,-1.5322,-1.5312,-1.5303,-1.5296,-1.5285,-1.5277,-1.527,-1.5265,-1.5262,-1.525,-1.5251,-1.525,-1.5238,-1.5238,-1.5242,-1.5253,-1.5259,-1.5263,-1.5248,-1.5248,-1.5248,0,-1.5381,-1.5372,-1.5367,-1.5352,-1.5349,-1.5346,-1.5334,-1.5328,-1.5315,-1.5309,-1.53,-1.529,-1.5283,-1.5276,-1.5265,-1.5265,-1.5259,-1.5252,-1.5252,-1.525,-1.5243,-1.5251,-1.5264,-1.5264,-1.5248,-1.5248,-1.5248,0,-1.5398,-1.5385,-1.538,-1.5375,-1.5357,-1.5354,-1.5346,-1.5334,-1.5328,-1.5317,-1.5313,-1.5302,-1.5295,-1.5286,-1.5272,-1.5269,-1.5262,-1.5255,-1.5256,-1.5256,-1.5255,-1.5255,-1.5267,-1.5252,-1.5252,-1.5252,-1.5252,0,-1.5409,-1.5407,-1.5387,-1.5384,-1.538,-1.5365,-1.5362,-1.5352,-1.5341,-1.5334,-1.5321,-1.5315,-1.5297,-1.5289,-1.5278,-1.527,-1.5267,-1.5261,-1.5258,-1.5262,-1.5263,-1.5258,-1.5257,-1.5252,-1.5252,-1.5252,-1.5252,0,-1.5428,-1.5415,-1.5408,-1.5391,-1.5387,-1.5385,-1.5369,-1.5365,-1.5354,-1.5347,-1.5344,-1.5327,-1.5316,-1.5301,-1.5286,-1.5278,-1.5271,-1.5267,-1.5276,-1.5274,-1.5275,-1.5275,-1.5284,-1.5284,-1.527,-1.527,-1.527,0,-1.5436,-1.5434,-1.5416,-1.5411,-1.5404,-1.5397,-1.539,-1.5375,-1.5368,-1.5353,-1.535,-1.5338,-1.5328,-1.5311,-1.5297,-1.5285,-1.5279,-1.5283,-1.5278,-1.5281,-1.5278,-1.5279,-1.5278,-1.5285,-1.5285,-1.5285,-1.5285,0,-1.5452,-1.5445,-1.5437,-1.5426,-1.5418,-1.5409,-1.5398,-1.5395,-1.5377,-1.537,-1.5359,-1.5352,-1.5335,-1.5323,-1.5309,-1.5299,-1.5289,-1.5287,-1.5286,-1.5291,-1.5295,-1.5292,-1.5279,-1.5287,-1.5287,-1.5287,-1.5287,-1.5287,-1.5465,-1.5461,-1.5448,-1.5439,-1.5429,-1.542,-1.5415,-1.5403,-1.5394,-1.538,-1.5371,-1.536,-1.5345,-1.5325,-1.5316,-1.5306,-1.5302,-1.5301,-1.5301,-1.5301,-1.5302,-1.5297,-1.5303,-1.5303,-1.5303,-1.5303,-1.5303,0,-1.5479,-1.5469,-1.5461,-1.5447,-1.5439,-1.543,-1.5418,-1.5411,-1.5402,-1.539,-1.538,-1.5366,-1.5354,-1.5338,-1.5325,-1.532,-1.5314,-1.5317,-1.5317,-1.5314,-1.5307,-1.5308,-1.5321,-1.5321,-1.5321,-1.5321,-1.5321,-1.5321,-1.5485,-1.5479,-1.547,-1.5458,-1.5448,-1.5438,-1.5432,-1.5422,-1.5412,-1.5397,-1.5387,-1.5377,-1.5363,-1.5348,-1.5335,-1.5331,-1.5326,-1.533,-1.5323,-1.5317,-1.5315,-1.5313,-1.5315,-1.5329,-1.5329,-1.5332,-1.5332,-1.5332]}]]